Погода в Опарине

Россия / Кировская область     59°50′57″N   48°16′51″E
темп.,
°C
ветер,
м/с
пор.,
м/с
влажн.,
%
обл.,
%
осадки,
мм/ч
давл.,
гПа
погр.,
м
16 мая, вс
вс1600:00+15ю3894100 0.4 1012234
03:00+15ю3129385 0.4 1011350
06:00+17ююз411901 0.0 1011435
09:00+21юз511650 0.0 10111220
12:00+24юз611465 0.0 10112111
15:00+24юз510452 0.0 10112411
18:00+22зюз49561 0.0 10101228
21:00+16юз310790 0.0 1011237
17 мая, пн
пн1700:00+13юз210910 0.0 1012260
03:00+13юз310927 0.0 1013264
06:00+15юз49790 0.0 1014415
09:00+20зюз476024 0.0 10151355
12:00+20з4758100 0.1 10151535
15:00+20зюз485898 0.1 10161384
18:00+19ссз366712 0.0 10171037
21:00+13ссв2586100 0.0 1019101
18 мая, вт
вт1800:00+11св229130 0.0 102020
03:00+9всв239690 0.0 102157
06:00+13в248147 0.0 1022263
09:00+18в235928 0.0 1022767
12:00+22вюв22455 0.0 10211188
15:00+23юв23406 0.0 10201412
18:00+21юв245695 0.0 1020107
21:00+16юв257176 0.0 102083
19 мая, ср
ср1900:00+14юв3976100 0.0 1021160
03:00+12юв288190 0.0 1021145
06:00+16ююв3972100 0.0 1021296
09:00+21ююв475599 0.0 1020563
12:00+25ююв45446 0.0 10191088
15:00+26ю4543100 0.0 10191423
18:00+23ююв3757100 0.0 1018392
21:00+16ююв397564 0.0 1019176
20 мая, чт
чт2000:00+14ююв39769 0.0 1018159
03:00+13ююв29785 0.0 1018152
06:00+16юв39655 0.0 1018254
09:00+22ююв47495 0.0 1017711
12:00+26ю573317 0.0 10161950
15:00+26ююв573118 0.0 10152153
18:00+23ююв4946100 0.0 1014404
21:00+18ююв4137099 0.0 1014375